This demonstration page uses our WeatherBlox Daily Observations layout. Learn more.

Left ArrowRight Arrow

39.51506, -84.39828

Hourly Observations for October 14, 2021

Temp ( °F °C ) Dew Point ( °F °C ) Humidity (%) Winds ( mph kmh ) Pressure ( in mb ) Visibility ( mi km ) Precip ( " mm )
12:15 am 00:15 Cloudy with Haze 63 17 N/A N/A N N/A 29.98 1015 5 8 N/A
12:35 am 00:35 Mostly Cloudy with Haze 64 18 N/A N/A N N/A 29.97 1015 5 8 N/A
12:55 am 00:55 Hazy 64 18 N/A N/A N N/A 29.97 1015 5 8 N/A
1:15 am 01:15 Cloudy with Haze 64 18 N/A N/A WNW 3 6 29.98 1015 5 8 N/A
1:35 am 01:35 Cloudy with Haze 66 19 N/A N/A E 3 6 29.97 1015 5 8 N/A
1:55 am 01:55 Cloudy with Haze 66 19 N/A N/A N N/A 29.98 1015 7 11 N/A
2:15 am 02:15 Cloudy with Haze 66 19 N/A N/A N N/A 29.99 1015 5 8 N/A
2:35 am 02:35 Cloudy with Haze 66 19 N/A N/A N N/A 29.99 1015 5 8 N/A
2:55 am 02:55 Cloudy with Haze 66 19 N/A N/A N N/A 29.99 1015 5 8 N/A
3:15 am 03:15 Cloudy with Mist and Fog 66 19 N/A N/A N N/A 29.99 1015 2 3 N/A
3:35 am 03:35 Partly Cloudy with Mist and Fog 64 18 N/A N/A N N/A 29.99 1016 3 5 N/A
3:55 am 03:55 Mostly Cloudy with Mist and Fog 64 18 N/A N/A N 3 6 29.99 1016 1 2 N/A
4:15 am 04:15 Partly Cloudy with Mist and Fog 64 18 N/A N/A N 3 6 29.99 1016 3 5 N/A
4:35 am 04:35 Partly Cloudy with Mist and Fog 64 18 N/A N/A N N/A 29.99 1016 1 2 N/A
4:55 am 04:55 Mostly Cloudy with Mist and Fog 64 18 N/A N/A N N/A 29.99 1016 1 1 N/A
5:15 am 05:15 Mostly Cloudy with Mist and Fog 64 18 N/A N/A N N/A 29.99 1016 1 1 N/A
5:35 am 05:35 Mostly Cloudy with Mist and Fog 64 18 N/A N/A N N/A 29.99 1016 1 1 0.01 0.25
5:55 am 05:55 Cloudy with Mist and Fog 64 18 N/A N/A N N/A 30.00 1016 1 2 0.01 0.25
6:15 am 06:15 Cloudy with Mist and Fog 64 18 N/A N/A N N/A 30.00 1016 3 5 N/A
6:35 am 06:35 Cloudy with Mist and Fog 64 18 N/A N/A N N/A 30.00 1016 4 6 N/A
6:55 am 06:55 Cloudy with Mist and Fog 66 19 N/A N/A N N/A 30.00 1016 4 6 N/A
7:15 am 07:15 Cloudy with Mist and Fog 66 19 N/A N/A N N/A 30.00 1016 4 6 N/A
7:35 am 07:35 Cloudy with Mist and Fog 66 19 N/A N/A N N/A 30.00 1016 3 5 N/A
7:55 am 07:55 Mostly Cloudy with Mist and Fog 66 19 N/A N/A N N/A 30.01 1016 3 4 N/A
8:15 am 08:15 Mostly Cloudy with Mist and Fog 64 18 N/A N/A N N/A 30.01 1016 1 1 N/A
8:35 am 08:35 Mostly Cloudy with Fog 64 18 N/A N/A N N/A 30.02 1017 1 1 N/A
8:55 am 08:55 Partly Cloudy with Mist and Fog 66 19 N/A N/A N N/A 30.02 1016 3 4 N/A
9:15 am 09:15 Hazy 68 20 N/A N/A N N/A 30.00 1016 4 6 N/A
9:35 am 09:35 Sunny 72 22 N/A N/A SSW 6 9 30.01 1016 7 11 N/A
9:55 am 09:55 Partly Cloudy 73 22.7 71 21.6 94 94 SSW 8 13 30.01 1016 10 16 N/A
10:15 am 10:15 Sunny 74 23.3 71 21.7 91 91 SSW 9 15 30.01 1016 10 16 N/A
10:35 am 10:35 Sunny 74 23.1 71 21.5 91 91 SSW 9 15 30.01 1016 10 16 N/A
10:55 am 10:55 Sunny 74 23.3 71 21.4 89 89 SW 8 13 30.00 1016 10 16 N/A
11:15 am 11:15 Sunny 74 23.6 71 21.5 88 88 SW 8 13 30.00 1016 10 16 N/A
11:35 am 11:35 Partly Cloudy 75 24 71 21.6 87 87 WSW 10 17 30.00 1016 10 16 N/A
11:55 am 11:55 Partly Cloudy 75 24 70 21.2 84 84 SW 8 13 30.00 1016 10 16 N/A
12:15 pm 12:15 Partly Cloudy 78 25.3 71 21.6 80 80 SSW 9 15 29.97 1015 10 16 N/A
12:35 pm 12:35 Partly Cloudy 78 25.3 70 21.1 78 78 SSW 12 19 29.98 1015 10 16 N/A
12:55 pm 12:55 Sunny 78 25.6 70 21.3 77 77 SW 9 15 29.97 1015 10 16 N/A
1:15 pm 13:15 Sunny 78 25.8 70 21 75 75 SW 10 17 29.97 1015 10 16 N/A
1:35 pm 13:35 Sunny 78 25.7 70 20.9 75 75 SW 10 17 29.96 1015 10 16 N/A
1:55 pm 13:55 Sunny 79 25.9 69 20.5 72 72 WSW 9 15 29.96 1015 10 16 N/A
2:15 pm 14:15 Sunny 79 26 69 20.7 73 73 W 9 15 29.95 1014 10 16 N/A
2:35 pm 14:35 Partly Cloudy 79 26 69 20.5 72 72 SW 9 15 29.94 1014 10 16 N/A
2:55 pm 14:55 Sunny 80 26.7 69 20.4 68 68 SSW 8 13 29.92 1013 10 16 N/A
3:15 pm 15:15 Partly Cloudy 79 26.3 68 20.2 69 69 SSW 10 17 29.92 1013 10 16 N/A
3:35 pm 15:35 Partly Cloudy 82 27.5 67 19.7 63 63 SW 8 13 29.91 1013 10 16 N/A
3:55 pm 15:55 Partly Cloudy 81 27 68 20 66 66 SW 10 17 29.91 1013 10 16 N/A
4:15 pm 16:15 Mostly Cloudy 81 27.3 69 20.4 66 66 SW 10 17 29.91 1013 10 16 N/A
4:35 pm 16:35 Partly Cloudy 81 27.2 68 19.9 64 64 S 10 17 29.90 1012 10 16 N/A
4:55 pm 16:55 Mostly Cloudy 81 27.3 67 19.6 63 63 S 12 19 29.90 1012 10 16 N/A
5:15 pm 17:15 Mostly Cloudy 80 26.5 68 19.8 67 67 SSW 9 15 29.90 1013 10 16 N/A
5:35 pm 17:35 Partly Cloudy 80 26.6 67 19.7 66 66 SSW 12 19 29.90 1013 10 16 N/A
5:55 pm 17:55 Sunny 78 25.7 67 19.6 69 69 SSW 8 13 29.90 1013 10 16 N/A
6:15 pm 18:15 Sunny 78 25.6 67 19.7 70 70 SSW 10 17 29.90 1013 10 16 N/A
6:35 pm 18:35 Sunny 78 25.4 67 19.5 70 70 S 8 13 29.90 1013 10 16 N/A
6:55 pm 18:55 Sunny 77 24.9 67 19.6 72 72 S 7 11 29.90 1013 10 16 N/A
7:15 pm 19:15 Clear 75 24.1 67 19.7 77 77 SSW 6 9 29.91 1013 10 16 N/A
7:35 pm 19:35 Clear 72 22.1 69 20.7 92 92 SSW 3 6 29.91 1013 10 16 N/A
7:55 pm 19:55 Clear 76 24.3 67 19.7 76 76 S 7 11 29.90 1013 10 16 N/A
8:15 pm 20:15 Clear 75 24.1 68 19.8 77 77 SSW 8 13 29.92 1013 10 16 N/A
8:35 pm 20:35 Clear 74 23.2 68 20 82 82 SSW 6 9 29.92 1013 10 16 N/A
8:55 pm 20:55 Clear 72 22.1 68 19.9 87 87 S 7 11 29.91 1013 10 16 N/A
9:15 pm 21:15 Clear 75 24.1 68 19.8 77 77 S 8 13 29.91 1013 10 16 N/A
9:35 pm 21:35 Clear 74 23.4 68 20 81 81 S 6 9 29.91 1013 10 16 N/A
9:55 pm 21:55 Clear 70 21.2 68 20.1 93 93 WSW 3 6 29.91 1013 10 16 N/A
10:15 pm 22:15 Clear 69 20.5 68 20 97 97 N N/A 29.91 1013 10 16 N/A
10:35 pm 22:35 Clear 69 20.4 68 20.1 98 98 WNW 3 6 29.92 1013 10 16 N/A
10:55 pm 22:55 Clear 68 20 N/A N/A N N/A 29.92 1013 10 16 N/A
11:15 pm 23:15 Clear 66 19 N/A N/A N N/A 29.93 1013 10 16 N/A
11:35 pm 23:35 Clear 66 19 N/A N/A N N/A 29.93 1013 7 11 N/A
11:55 pm 23:55 Hazy 66 19 N/A N/A N N/A 29.93 1013 7 11 N/A

Powered by AerisWeather